Location: Cahas Mountain Overlook
(37.0833°N, 80.1000°W)
Time: 01:11:55
(UTC-05:00)

SR - All Passes

Search period start: 07 December 2023 00:00
Search period end: 17 December 2023 00:00
Orbit: 571 x 872 km, 66.7° (Epoch: 06 December)

Date Brightness Start Highest point End Pass type
(mag) Time Alt. Az. Time Alt. Az. Time Alt. Az.
07 Dec - 09:53:22 10° SSE 09:57:47 26° ESE 10:02:25 10° NE daylight
07 Dec - 11:34:15 10° SW 11:39:28 43° NW 11:44:59 10° NNE daylight
07 Dec - 18:36:27 10° N 18:39:44 15° NE 18:42:55 10° E visible
07 Dec - 20:16:50 10° NNW 20:22:35 90° WSW 20:27:53 10° SSE visible
07 Dec - 22:03:19 10° W 22:03:31 10° W 22:03:44 10° WSW night (unlit)
08 Dec - 09:05:01 10° ESE 09:06:45 11° E 09:08:30 10° E daylight
08 Dec - 10:42:20 10° SSW 10:47:47 85° WNW 10:53:38 10° NNE daylight
08 Dec - 12:27:32 10° WNW 12:30:41 15° NW 12:33:55 10° N daylight
08 Dec - 19:25:26 10° NNW 19:30:55 45° NE 19:36:02 10° SE visible
08 Dec - 21:08:09 10° NW 21:12:32 24° WSW 21:16:39 10° SSW visible
09 Dec - 09:51:12 10° S 09:56:21 46° ESE 10:01:52 10° NE daylight
09 Dec - 11:33:54 10° WSW 11:38:34 27° NW 11:43:27 10° N daylight
09 Dec - 18:34:27 10° N 18:39:00 24° NE 18:43:21 10° ESE visible
09 Dec - 20:15:51 10° NW 20:21:19 51° WSW 20:26:23 10° S visible
10 Dec - 09:01:07 10° SSE 09:05:10 22° ESE 09:09:25 10° ENE daylight
10 Dec - 10:41:21 10° SW 10:46:41 50° WNW 10:52:22 10° NNE daylight
10 Dec - 17:44:12 10° NNE 17:46:51 13° NE 17:49:25 10° ENE visible
10 Dec - 19:24:08 10° NNW 19:29:51 77° ENE 19:35:08 10° SSE visible
10 Dec - 21:08:42 10° WNW 21:10:57 13° W 21:13:09 10° SW visible
11 Dec - 09:49:37 10° SSW 09:55:04 81° ESE 10:00:55 10° NNE daylight
11 Dec - 11:34:09 10° W 11:37:48 17° NW 11:41:33 10° N daylight
11 Dec - 18:32:49 10° NNW 18:38:08 38° NE 18:43:05 10° ESE visible
11 Dec - 20:15:11 10° NW 20:19:53 28° WSW 20:24:19 10° SSW visible
12 Dec - 08:58:41 10° S 09:03:42 38° ESE 09:09:00 10° NE daylight
12 Dec - 10:40:50 10° WSW 10:45:44 31° NW 10:50:53 10° N daylight
12 Dec - 17:41:56 10° N 17:46:09 21° NE 17:50:09 10° E visible
12 Dec - 19:23:02 10° NW 19:28:37 61° WSW 19:33:46 10° SSE visible
13 Dec - 08:08:55 10° SE 08:12:33 18° ESE 08:16:18 10° ENE daylight
13 Dec - 09:48:28 10° SW 09:53:55 60° WNW 09:59:41 10° NNE daylight
13 Dec - 11:35:38 10° NW 11:37:10 11° NW 11:38:43 10° NNW daylight
13 Dec - 16:52:10 10° NNE 16:53:54 11° NE 16:55:36 10° ENE daylight
13 Dec - 18:31:26 10° NNW 18:37:06 64° ENE 18:42:19 10° SE visible
13 Dec - 20:15:14 10° WNW 20:18:20 15° WSW 20:21:19 10° SW visible
14 Dec - 08:56:55 10° SSW 09:02:21 68° ESE 09:08:08 10° NNE daylight
14 Dec - 10:40:50 10° W 10:44:55 20° NW 10:49:06 10° N daylight
14 Dec - 17:40:13 10° N 17:45:18 32° NE 17:50:04 10° ESE visible
14 Dec - 19:22:14 10° NW 19:27:14 34° WSW 19:31:52 10° S visible
15 Dec - 08:06:13 10° S 08:11:01 32° ESE 08:16:06 10° NE daylight
15 Dec - 09:47:47 10° WSW 09:52:53 36° NW 09:58:16 10° NNE daylight
15 Dec - 16:49:28 10° N 16:53:15 18° NE 16:56:52 10° E daylight
15 Dec - 18:30:15 10° NNW 18:35:54 74° WSW 18:41:05 10° SSE visible
16 Dec - 07:16:52 10° SE 07:19:55 15° ESE 07:23:01 10° ENE daylight
16 Dec - 08:55:37 10° SW 09:01:08 71° WNW 09:06:59 10° NNE daylight
16 Dec - 10:41:43 10° WNW 10:44:13 13° NW 10:46:45 10° NNW daylight
16 Dec - 17:38:44 10° NNW 17:44:18 54° ENE 17:49:26 10° SE visible
16 Dec - 19:21:58 10° WNW 19:25:41 19° WSW 19:29:13 10° SSW visible
